AO-07 1 07530U 74089B 23200.83730623 -.00000048 00000-0 -10401-4 0 9996 2 07530 101.9482 187.7360 0012323 3.3036 113.8701 12.53665446227509 UO-11 1 14781U 84021B 23200.87338540 .00001997 00000-0 23995-3 0 9998 2 14781 97.6590 176.5424 0009822 93.9142 266.3197 14.85016591119990 AO-16 1 20439U 90005D 23200.85688840 .00000223 00000-0 98344-4 0 9995 2 20439 98.8841 191.9267 0011873 106.3785 11.1616 14.33127123749837 LO-19 1 20442U 90005G 23201.54014775 .00000221 00000-0 97180-4 0 9991 2 20442 98.8455 178.7713 0012899 81.7726 278.4920 14.33281317750183 HUBBLE 1 20580U 90037B 23200.83977042 .00005085 00000-0 26635-3 0 9994 2 20580 28.4703 50.6987 0002722 16.5074 55.1750 15.13514689626675 MET-2/21 1 22782U 93055A 23200.09551855 .00000086 00000-0 64191-4 0 9997 2 22782 82.5477 59.4375 0021413 317.2418 207.0926 13.83891335509134 AO-27 1 22825U 93061C 23200.10714884 .00000149 00000-0 75022-4 0 9992 2 22825 98.8389 243.5087 0007987 342.3352 17.7551 14.30322034555124 IO-26 1 22826U 93061D 23200.10250574 .00000172 00000-0 83168-4 0 9990 2 22826 98.8335 243.3666 0008272 326.8994 33.1669 14.30684766555376 FO-29 1 24278U 96046B 23200.87161604 .00000002 00000-0 40492-4 0 9993 2 24278 98.5301 174.9745 0349726 332.2938 25.9945 13.53150123329607 NOAA-15 1 25338U 98030A 23201.75827273 .00000266 00000-0 12877-3 0 9992 2 25338 98.6040 230.2384 0009768 209.9390 150.1232 14.26355610310049 GO-32 1 25397U 98043D 23200.75538999 .00000115 00000-0 70060-4 0 9996 2 25397 98.8704 158.4956 0002224 62.8987 297.2418 14.23888947300181 ISS 1 25544U 98067A 23201.85187593 .00013285 00000-0 24117-3 0 9991 2 25544 51.6411 161.7191 0000450 86.8326 1.2108 15.49901597407012 NO-44 1 26931U 01043C 23200.07287099 .00000226 00000-0 11732-3 0 9995 2 26931 67.0513 114.4941 0007990 267.3359 92.6828 14.30945169138301 SO-50 1 27607U 02058C 23200.11584297 .00001217 00000-0 18450-3 0 9993 2 27607 64.5534 167.0352 0065982 218.1755 141.4667 14.77405663107150 CO-55 1 27844U 03031E 23200.59847858 .00000438 00000-0 21468-3 0 9992 2 27844 98.6773 207.3800 0010556 37.9420 322.2500 14.22818215 40371 CO-57 1 27848U 03031J 23200.55043569 .00000366 00000-0 18436-3 0 9990 2 27848 98.6810 207.7360 0010678 51.9205 308.2934 14.22324026 40157 RS-22 1 27939U 03042A 23201.80211591 .00001404 00000-0 25081-3 0 9992 2 27939 98.2475 349.0234 0013107 35.6410 100.7439 14.68491915 59470 NOAA-18 1 28654U 05018A 23201.77305416 .00000267 00000-0 16704-3 0 9996 2 28654 98.9089 276.0002 0013163 285.7665 74.2055 14.12972443936312 CO-58 1 28895U 05043F 23201.59017568 .00001784 00000-0 33558-3 0 9990 2 28895 98.1580 333.4037 0015459 331.0140 29.0203 14.65783510945930 CO-65 1 32785U 08021C 23200.84891106 .00004748 00000-0 46686-3 0 9996 2 32785 97.7076 166.1121 0011999 4.3083 355.8237 14.92538325825761 AAUSAT2 1 32788U 08021F 23201.47741174 .00009333 00000-0 66913-3 0 9998 2 32788 97.5625 180.1707 0006012 227.7367 132.3350 15.04559320828213 DO-64 1 32789U 08021G 23200.61697250 .00063514 00000-0 15386-2 0 9997 2 32789 97.2989 221.9735 0004309 46.9918 313.1689 15.40856542832472 CO-66 1 32791U 08021J 23201.69504394 .00005367 00000-0 46946-3 0 9994 2 32791 97.6577 172.2392 0010241 305.5402 54.4864 14.97113507826755 RS-30 1 32953U 08025A 23201.76536056 .00000040 00000-0 21506-3 0 9994 2 32953 82.5041 296.2110 0020736 111.4945 248.8348 12.43126869687828 PRISM 1 33493U 09002B 23200.52721134 .00010234 00000-0 68294-3 0 9997 2 33493 98.2438 217.3257 0014163 299.7028 60.2787 15.07175439788620 NOAA-19 1 33591U 09005A 23201.75099625 .00000239 00000-0 15313-3 0 9996 2 33591 99.0974 248.2108 0014531 145.4290 214.7829 14.12789377744686 SRMSAT 1 37841U 11058D 23200.76269687 .00000459 00000-0 10674-3 0 9995 2 37841 19.9737 13.0679 0011872 29.8435 84.0315 14.10915436607634 HRBE 1 37855U 11061F 23201.54284845 .00024673 00000-0 73345-3 0 9992 2 37855 101.7066 182.0754 0112934 297.8030 61.1784 15.28645159642125 RS-40 1 38735U 12041C 23200.84328264 .00000015 00000-0 37209-4 0 9999 2 38735 82.4766 17.7239 0016784 223.4373 136.5384 12.42594876497862 ZACUBE-1 1 39417U 13066B 23201.65068362 .00003360 00000-0 38781-3 0 9996 2 39417 97.6871 162.1530 0054731 175.6015 184.5693 14.85206386522162 Delfi-N3xt 1 39428U 13066N 23200.31168570 .00005832 00000-0 83113-3 0 9997 2 39428 97.8326 124.0107 0112016 86.1769 275.2238 14.72880119517043 GOMX-1 1 39430U 13066Q 23201.72519542 .00001590 00000-0 28267-3 0 9991 2 39430 97.7760 90.9108 0143944 226.9198 131.9885 14.61972279514436 LO-74 1 39440U 13066AA 23201.64512063 .00003120 00000-0 40417-3 0 9996 2 39440 97.7735 149.3123 0073245 278.6835 80.6085 14.79679270520302 AO-73 1 39444U 13066AE 23201.44017690 .00004321 00000-0 47653-3 0 9997 2 39444 97.6733 164.5253 0053391 161.2689 199.0509 14.86954163521177 SPROUT 1 39770U 14029E 23200.31814815 .00021866 00000-0 16031-2 0 9996 2 39770 97.9889 328.5444 0006943 199.2255 160.8708 15.03514586496987 DTUSAT-2 1 40030U 14033W 23200.78158576 .00005098 00000-0 49102-3 0 9993 2 40030 97.9683 141.7446 0010895 173.9925 186.1427 14.93359157493379 EO-80 1 40032U 14033Y 23201.56126012 .00004268 00000-0 41190-3 0 9999 2 40032 97.9679 142.5521 0010754 173.6522 186.4835 14.93372127493472 HODOYOSHI-1 1 40299U 14070B 23201.76515726 .00011197 00000-0 33720-3 0 9990 2 40299 97.1916 263.5690 0011454 151.2699 208.9178 15.34439394483957 FIREBIRD FU3 1 40377U 15003B 23201.69683680 .00628751 17122-3 14591-2 0 9991 2 40377 99.0645 171.5147 0026232 103.7561 256.6632 15.96466022469954 FIREBIRD FU4 1 40378U 15003C 23201.45873953 .00601345 15364-3 14797-2 0 9994 2 40378 99.0689 171.5034 0026375 101.9054 258.5176 15.95385445469922 GRIFEX 1 40379U 15003D 23201.58695124 .00033182 00000-0 66753-3 0 9997 2 40379 99.0781 146.4656 0078839 154.3976 206.1203 15.43175202468531 XW-2C 1 40906U 15049H 23201.71098399 .00013192 00000-0 49525-3 0 9996 2 40906 97.4925 208.9748 0012734 52.6564 307.5832 15.27257679433515 XW-2D 1 40907U 15049J 23201.75065778 .00015810 00000-0 55587-3 0 9990 2 40907 97.4905 209.6424 0011538 47.5633 312.6581 15.29385047433616 LILACSAT-2 1 40908U 15049K 23201.79929496 .00006433 00000-0 29990-3 0 9991 2 40908 97.5245 204.7680 0015665 76.1004 284.1972 15.20120228432907 XW-2E 1 40909U 15049L 23201.72683334 .00031869 00000-0 78449-3 0 9997 2 40909 97.4503 216.2246 0007445 20.9133 339.2416 15.40515545434300 XW-2F 1 40910U 15049M 23201.80390201 .00032282 00000-0 81225-3 0 9992 2 40910 97.4597 215.5490 0008288 21.6760 338.4835 15.39839131434065 XW-2B 1 40911U 15049N 23201.75174930 .00015486 00000-0 54856-3 0 9993 2 40911 97.4884 210.0592 0011588 48.9991 311.2249 15.29145445433494 DCBB 1 40912U 15049P 23201.74837966 .00041752 00000-0 83306-3 0 9995 2 40912 97.4138 220.2560 0005265 331.0259 29.0697 15.46725262434798 IO-86 1 40931U 15052B 23200.83511543 .00001315 00000-0 92326-4 0 9993 2 40931 5.9984 213.4635 0012716 35.6881 324.4096 14.77279861422183 ATHENOXAT-1 1 41168U 15077C 23200.62942359 .00372787 00000-0 21809-2 0 9993 2 41168 14.9861 323.6400 0004613 101.1406 258.9442 15.75938119421411 ChubuSat-2 1 41338U 16012B 23201.72078540 .00004556 00000-0 31319-3 0 9990 2 41338 31.0040 3.3800 0012015 152.0222 208.1062 15.04252196407438 ChubuSat-3 1 41339U 16012C 23201.78535240 .00004128 00000-0 28450-3 0 9999 2 41339 31.0105 0.1469 0011943 160.1187 199.9916 15.04086751407433 Horyu-4 1 41340U 16012D 23201.67977767 .00007606 00000-0 47104-3 0 9994 2 41340 31.0056 327.8278 0011099 217.7417 142.2443 15.08375614407781 e-st@r-II 1 41459U 16025D 23201.80712175 .00028239 00000-0 77468-3 0 9995 2 41459 98.1826 46.5660 0101454 342.5853 17.1915 15.32114811398046 AAUSAT4 1 41460U 16025E 23200.56018088 .00150799 00000-0 13704-2 0 9990 2 41460 98.1518 59.4347 0043459 291.1648 68.4968 15.66259144398821 LO-87 1 41557U 16033B 23201.71931695 .00087392 00000-0 90177-3 0 9990 2 41557 97.3897 311.0676 0003951 3.8091 356.3197 15.64507862398862 NuSat2 1 41558U 16033C 23201.80094642 .00110583 00000-0 93139-3 0 9993 2 41558 97.4181 319.6227 0003674 336.2757 23.8334 15.69485643399238 Lapan A3 1 41603U 16040E 23201.77414210 .00002890 00000-0 12689-3 0 9997 2 41603 97.1642 225.7871 0012265 189.6749 170.4254 15.22638411392603 Pratham 1 41783U 16059A 23200.62453424 .00000915 00000-0 18200-3 0 9990 2 41783 97.8669 230.2928 0032904 0.5267 359.5965 14.64022998363722 TY-1 1 41844U 16066D 23201.76564109 .00069339 00000-0 92211-3 0 9994 2 41844 97.3635 222.1084 0003937 275.7279 84.3527 15.57951206372907 CAS-2T 1 41847U 16066G 23201.73761558 .00002420 00000-0 36401-3 0 9998 2 41847 98.5024 270.1279 0360451 96.7999 267.4334 14.39841029351638 CAS-4B 1 42759U 17034B 23201.68721360 .00007964 00000-0 39509-3 0 9998 2 42759 43.0154 289.3807 0011904 314.0356 45.9511 15.17989809336723 CAS-4A 1 42761U 17034D 23201.70327145 .00008425 00000-0 41724-3 0 9992 2 42761 43.0145 287.8179 0012578 315.7682 44.2160 15.17985516336733 NIUSat 1 42766U 17036B 23200.09469016 .00029320 00000-0 70792-3 0 9998 2 42766 97.1535 230.7142 0008237 359.9541 0.1704 15.41109137337526 Aalto 1 1 42775U 17036L 23201.55314099 .00018124 00000-0 50598-3 0 9992 2 42775 97.1494 230.6556 0008445 357.6701 2.4503 15.36740011337643 URSA MAIOR 1 42776U 17036M 23200.07621390 .00023745 00000-0 61853-3 0 9995 2 42776 97.1502 230.6568 0007973 359.6755 0.4484 15.38836265337491 Max Valier Sat 1 42778U 17036P 23200.07793027 .00026004 00000-0 64315-3 0 9991 2 42778 97.1513 234.1971 0006631 3.4577 356.6714 15.40414866337638 Pegasus 1 42784U 17036V 23201.68262742 .00039388 00000-0 69694-3 0 9995 2 42784 97.1434 238.7492 0003915 341.9899 18.1214 15.50199648338167 SUCHAI 1 1 42788U 17036Z 23201.57997830 .00099529 00000-0 10670-2 0 9992 2 42788 97.1384 242.9875 0001647 295.0638 65.0451 15.63498453338509 SKCUBE 1 42789U 17036AA 23200.82710239 .00071163 00000-0 10193-2 0 9990 2 42789 97.1395 240.3229 0002917 330.1033 30.0055 15.55942638338184 VENTA 1 1 42791U 17036AC 23200.66222941 .00041779 00000-0 73504-3 0 9999 2 42791 97.1449 238.9468 0003365 347.7511 12.3659 15.50351492338065 Robusta 1B 1 42792U 17036AD 23200.06427899 .00089198 00000-0 10767-2 0 9991 2 42792 97.1381 240.9935 0001344 307.3233 52.7902 15.60455170338171 D-SAT 1 42794U 17036AF 23201.78367616 .00003961 00000-0 31359-3 0 9998 2 42794 97.4650 192.2886 0115920 187.8427 172.0987 14.95953184330986 TechnoSat 1 42829U 17042E 23201.61708079 .00003093 00000-0 29601-3 0 9991 2 42829 97.3876 37.0615 0014889 111.3765 248.9046 14.93796700327486 AO-91 1 43017U 17073E 23201.57580000 .00006767 00000-0 47189-3 0 9994 2 43017 97.6258 84.5986 0230484 319.3496 39.0709 14.86660887306146 PICSAT 1 43132U 18004X 23200.73125472 .00092374 00000-0 95751-3 0 9999 2 43132 97.3261 285.0701 0001619 304.5496 55.5610 15.64382490307626 AO-92 1 43137U 18004AC 23200.01862521 .00041601 00000-0 78375-3 0 9998 2 43137 97.3277 279.6058 0004581 36.4773 323.6789 15.48391891307221 TianYi 2 1 43155U 18008A 23201.75457288 .00019861 00000-0 75334-3 0 9999 2 43155 97.2953 253.4917 0013261 182.6595 177.4576 15.26813357303773 Zhou Enlai 1 43156U 18008B 23201.75022898 .00022219 00000-0 82463-3 0 9997 2 43156 97.3002 253.6561 0010902 182.0056 178.1141 15.27538040303705 TianYi 6 1 43158U 18008D 23200.71040159 .00014521 00000-0 60126-3 0 9993 2 43158 97.3012 249.4184 0010732 188.9479 171.1569 15.23976020303377 S-Net D 1 43186U 18014G 23201.72437452 .00003977 00000-0 31785-3 0 9991 2 43186 97.6230 104.8911 0017380 61.1441 299.1525 15.00685197298588 S-Net B 1 43187U 18014H 23200.72546829 .00003996 00000-0 31938-3 0 9991 2 43187 97.6232 103.8373 0017913 61.6225 298.6803 15.00671535298437 S-Net A 1 43188U 18014J 23201.72570356 .00003959 00000-0 31638-3 0 9991 2 43188 97.6234 104.9083 0017822 58.8409 301.4560 15.00681794298588 S-Net C 1 43189U 18014K 23200.72799576 .00004083 00000-0 32616-3 0 9994 2 43189 97.6235 103.8155 0018698 56.7981 303.5033 15.00665596296984 Shaonian Xing 1 43199U 18015H 23200.43680798 .00618988 17024-3 13115-2 0 9993 2 43199 97.5381 3.5191 0006407 277.9106 82.1444 15.98750524304937 CubeBel-1 1 43666U 18083E 23201.75007177 .00034259 00000-0 84950-3 0 9999 2 43666 97.3770 233.5930 0007799 15.9256 344.2234 15.40275134262368 Changshagaoxin 1 43669U 18083H 23201.80046465 .00030168 00000-0 85112-3 0 9997 2 43669 97.3766 228.0818 0006311 22.4984 337.6536 15.36328412262106 Ten-Koh 1 43677U 18084G 23200.38256650 .00002622 00000-0 25614-3 0 9993 2 43677 98.0175 340.8707 0015813 46.0237 314.2283 14.93202338256863 PO-101 1 43678U 18084H 23201.75502240 .00002031 00000-0 19831-3 0 9993 2 43678 98.0274 346.4100 0010602 55.8968 304.3256 14.93543058257276 QO-100 1 43700U 18090A 23201.76338817 .00000148 00000-0 00000+0 0 9995 2 43700 0.0165 62.7431 0001978 100.3844 75.7468 1.00273140 17267 Reaktor Hello World 1 43743U 18096AA 23200.76446689 .00078408 00000-0 85484-3 0 9991 2 43743 97.3159 288.8042 0007088 66.8263 293.3742 15.63111994259256 MinXSS-2 1 43758U 18099A 23200.70545439 .00005941 00000-0 45555-3 0 9994 2 43758 97.6046 264.1594 0018706 22.1139 338.0888 15.02047662252620 AO-95 1 43770U 18099N 23201.71284723 .00005732 00000-0 46222-3 0 9996 2 43770 97.5683 262.3400 0014817 38.3465 321.8809 15.00185410252632 RANGE-B 1 43772U 18099Q 23201.74435508 .00006598 00000-0 50764-3 0 9997 2 43772 97.5675 265.2471 0006038 342.1786 17.9227 15.01998159252701 RANGE-A 1 43773U 18099R 23201.58703281 .00004342 00000-0 36491-3 0 9992 2 43773 97.5631 260.2030 0012750 16.7193 343.4447 14.98741156252567 MOVE-II 1 43780U 18099Y 23200.70278763 .00008728 00000-0 62869-3 0 9995 2 43780 97.5703 264.0509 0009905 53.5259 306.6879 15.04377546252621 SNUSat 2 1 43782U 18099AA 23200.74598915 .00004153 00000-0 33756-3 0 9996 2 43782 97.5718 261.9301 0012614 358.7608 1.3582 15.00059649252519 SnugLite 1 43784U 18099AC 23201.61698783 .00004633 00000-0 37062-3 0 9996 2 43784 97.5620 262.4558 0006769 15.5877 344.5555 15.00655855252684 ITASat 1 1 43786U 18099AE 23201.65608569 .00005211 00000-0 42477-3 0 9994 2 43786 97.5744 263.3196 0014772 25.6297 334.5655 14.99815330252663 EAGLET 1 1 43790U 18099AJ 23201.70739507 .00003540 00000-0 29411-3 0 9998 2 43790 97.5714 263.8179 0011535 19.0897 341.0756 14.99321601252408 ESEO 1 43792U 18099AL 23201.76599349 .00002189 00000-0 19107-3 0 9993 2 43792 97.5664 262.2474 0012685 17.7702 342.3961 14.97779709252419 CSIM 1 43793U 18099AM 23201.65303427 .00009216 00000-0 65466-3 0 9999 2 43793 97.5754 266.3480 0015586 19.6120 340.5702 15.04827082252612 Astrocast 0.1 1 43798U 18099AS 23200.69784478 .00008088 00000-0 60118-3 0 9991 2 43798 97.5846 264.7184 0011445 5.4609 354.6739 15.03203187252650 JO-97 1 43803U 18099AX 23200.71295740 .00006035 00000-0 47323-3 0 9993 2 43803 97.5729 262.4599 0014629 354.7989 5.3081 15.01240555252579 Suomi 100 1 43804U 18099AY 23200.11729032 .00006353 00000-0 50180-3 0 9992 2 43804 97.5702 261.6519 0020063 9.1663 350.9924 15.00865292252488 Al Farabi 2 1 43805U 18099AZ 23200.08839245 .00007301 00000-0 55034-3 0 9994 2 43805 97.5596 262.7114 0012206 5.0792 355.0555 15.02697534252548 CHOMPTT 1 43855U 18104G 23200.31258620 .00026556 00000-0 62082-3 0 9998 2 43855 85.0311 144.2782 0011591 177.9774 182.1527 15.41952384255529 ISAT 1 43879U 18111D 23200.79223153 .00006823 00000-0 51208-3 0 9990 2 43879 97.6434 104.7985 0017041 59.1298 301.1600 15.02836381247211 UWE-4 1 43880U 18111E 23200.72549846 .00006149 00000-0 46409-3 0 9993 2 43880 97.6339 105.4071 0021305 66.7057 293.6407 15.02596490247254 Sparrow 1 43881U 18111F 23200.79140697 .00006524 00000-0 48571-3 0 9991 2 43881 97.6483 106.1837 0014000 95.2057 265.0767 15.03198830247286 Lume 1 1 43908U 18111AJ 23200.86231345 .00038429 00000-0 71266-3 0 9996 2 43908 97.1346 83.6856 0014298 84.0224 276.2656 15.48757494254443 FO-99 1 43937U 19003F 23201.56509435 .00066367 00000-0 91081-3 0 9994 2 43937 97.0818 228.4507 0013745 146.5208 213.6920 15.57013801251232 AstroCast 0.2 1 44083U 19018F 23200.72436043 .00056043 00000-0 87092-3 0 9991 2 44083 97.2633 260.8643 0006157 132.2819 227.8958 15.53750129239468 AISTechSat 3 1 44103U 19018AB 23201.76724340 .00030725 00000-0 69858-3 0 9998 2 44103 97.2500 260.0275 0010079 146.5049 213.6839 15.42891767239685 AISat 1 1 44104U 19018AC 23200.21106684 .00025124 00000-0 46340-3 0 9991 2 44104 97.3746 292.1672 0040381 140.5409 219.8795 15.48184654240675 Prox-1 1 44339U 19036A 23200.09213501 .00007081 00000-0 14071-2 0 9991 2 44339 23.9990 201.6439 0009173 254.8491 105.0987 14.59801833216354 Move-IIb 1 44398U 19038N 23200.79756844 .00052384 00000-0 11389-2 0 9992 2 44398 97.6594 185.2489 0015350 159.4366 200.7502 15.44037947223697 SONATE 1 44400U 19038Q 23201.70349902 .00009949 00000-0 43700-3 0 9993 2 44400 97.6854 180.0580 0020191 189.2766 170.8099 15.21949969223339 BeeSat 9 1 44412U 19038AC 23201.48395297 .00022911 00000-0 75153-3 0 9990 2 44412 97.6745 183.2564 0015522 177.0852 183.0482 15.31506302223255 JAISAT-1 1 44419U 19038F 23200.90457168 .00026202 00000-0 85187-3 0 9994 2 44419 97.6742 183.7534 0014825 175.0790 185.0599 15.31775003223544 Taurus 1 1 44530U 19059C 23201.74470116 .00004316 00000-0 11161-2 0 9994 2 44530 98.5580 310.0730 0011923 354.9300 5.1771 14.50379456203502 Duchifat 3 1 44854U 19089C 23200.55072175 .00007596 00000-0 50500-3 0 9991 2 44854 36.9605 257.7960 0009287 222.9124 137.0895 15.06763786197717 OPS-SAT 1 44878U 19092F 23201.75665103 .00021747 00000-0 61769-3 0 9996 2 44878 97.4742 30.9746 0008514 22.7804 337.3815 15.36170491198944 TO-108 1 44881U 19093C 23201.77241692 .00001089 00000-0 14167-3 0 9993 2 44881 97.8611 279.6528 0013971 333.7255 26.3248 14.82612674193770 FloripaSat 1 1 44885U 19093G 23201.74805061 .00003677 00000-0 42569-3 0 9992 2 44885 97.8679 282.5427 0012690 335.1145 24.9457 14.86066965193934 RS-44 1 44909U 19096E 23200.43398082 .00000012 00000-0 -34569-5 0 9991 2 44909 82.5240 326.5175 0218508 111.5270 250.9277 12.79722032166335 BY70-2 1 45857U 20042B 23201.76340729 .00019419 00000-0 19309-2 0 9991 2 45857 97.9250 281.8051 0008126 243.8105 116.2278 14.91688810164541 UPMSat 2 1 46276U 20061E 23200.13355791 .00009745 00000-0 40506-3 0 9998 2 46276 97.3449 267.0568 0001565 150.9694 209.1631 15.23995728159152 AmicalSat 1 46287U 20061R 23201.64030748 .00011852 00000-0 53894-3 0 9995 2 46287 97.3983 267.5342 0001423 27.2749 332.8561 15.20884074158795 SALSAT 1 46495U 20068K 23201.83145782 .00004432 00000-0 29124-3 0 9994 2 46495 97.7712 150.1997 0015648 12.9518 347.2108 15.08043237154148 CAPE 3 1 47309U 21002A 23200.59186243 .00033530 00000-0 74689-3 0 9994 2 47309 60.6771 294.8071 0007639 263.5796 96.4431 15.43407752139284 AO-109 1 47311U 21002C 23201.55382853 .00026183 00000-0 64002-3 0 9993 2 47311 60.6807 290.1037 0005625 248.5441 111.5055 15.40739750139432 ExoCube 2 1 47319U 21002L 23201.70125733 .00025538 00000-0 64219-3 0 9993 2 47319 60.6790 291.8457 0006516 253.7823 106.2555 15.39883807139377 UVSQ-SAT 1 47438U 21006AB 23200.71018537 .00014670 00000-0 58310-3 0 9992 2 47438 97.3818 257.3667 0008210 334.3166 25.7663 15.25373603137608 YUSAT 1 1 47439U 21006AC 23200.67957309 .00018155 00000-0 66246-3 0 9996 2 47439 97.3828 258.2253 0007335 330.4291 29.6533 15.28171615137650 SOMP 2b 1 47445U 21006AJ 23200.12430050 .00015065 00000-0 61310-3 0 9996 2 47445 97.3787 255.9901 0008276 343.1551 16.9410 15.24572703137483 IDEASSat 1 47458U 21006AX 23201.62905637 .00013109 00000-0 54399-3 0 9990 2 47458 97.3879 258.2634 0007494 336.9022 23.1877 15.23955205137693 CubeSX-Sirius-HSE 1 47951U 21022V 23201.78926139 .00009527 00000-0 52576-3 0 9997 2 47951 97.4934 98.6056 0017455 213.4232 146.5899 15.14029053128112 CubeSX-HSE 1 47952U 21022W 23201.76105066 .00008706 00000-0 47999-3 0 9995 2 47952 97.4933 98.6279 0017339 212.6337 147.3825 15.14093895128110 KSU-Cubesat 1 47954U 21022Y 23200.67040755 .00010407 00000-0 55866-3 0 9992 2 47954 97.4940 97.9762 0016687 214.9651 145.0486 15.15002658127696 GRBAlpha 1 47959U 21022AD 23201.67977238 .00009001 00000-0 49501-3 0 9990 2 47959 97.4935 98.6363 0017222 213.5229 146.4914 15.14174911126929 Orbicraft-Zorkiy 1 47960U 21022AE 23201.75345425 .00009411 00000-0 50676-3 0 9998 2 47960 97.4966 99.1849 0016791 211.8820 148.1397 15.14918444127649 STECCO 1 47962U 21022AG 23201.68825760 .00017907 00000-0 79916-3 0 9994 2 47962 97.4936 101.7971 0011914 193.7309 166.3605 15.21374463127139 DO-111 1 47963U 21022AH 23200.24353256 .02770202 97629-2 44054-2 0 9997 2 47963 97.4804 111.4685 0014756 174.6121 185.5322 16.06003071127644 MO-110 1 47964U 21022AJ 23201.71918803 .00020016 00000-0 86937-3 0 9997 2 47964 97.4951 102.4755 0014023 189.7874 170.3091 15.22251936127170 FEES 1 48082U 21022AL 23199.95046433 .00039403 00000-0 13700-2 0 9999 2 48082 97.4943 102.2910 0010061 179.6861 180.4387 15.29568849126716 TUBIN 1 48900U 21059X 23201.80163106 .00009117 00000-0 42605-3 0 9999 2 48900 97.6046 335.6339 0009621 158.3082 201.8562 15.19985910114280 IT-SPINS 1 49017U 21013G 23201.62676933 .00031327 00000-0 66568-3 0 9998 2 49017 51.5902 274.4814 0006113 69.8709 290.2934 15.44706224114870 LEDSAT 1 49069U 21073D 23200.76040661 .00008796 00000-0 47488-3 0 9992 2 49069 97.4807 271.0924 0023550 11.4750 348.7014 15.14726805105836 CUTE 1 49263U 21088D 23200.11912946 .00010386 00000-0 65435-3 0 9997 2 49263 97.5431 265.3750 0018923 149.5892 210.6439 15.09192053 99103 TeikyoSat 4 1 49396U 21102B 23201.76754106 .00002702 00000-0 20826-3 0 9993 2 49396 97.5075 252.7150 0014360 328.3600 31.6761 15.02362746 92814 Z-Sat 1 49399U 21102E 23201.72846714 .00003025 00000-0 21613-3 0 9993 2 49399 97.4822 253.7971 0020395 318.9047 41.0642 15.05069960 92934 KOSEN 1 1 49402U 21102H 23200.83305255 .00005474 00000-0 36920-3 0 9996 2 49402 97.4746 253.4962 0019465 308.5758 51.3725 15.06888163 92875 HO-113 1 50466U 21131B 23201.75533537 .00000698 00000-0 24060-3 0 9993 2 50466 98.5519 283.1968 0005026 52.1706 307.9935 14.38968189 82183 Tevel-3 1 50988U 22002E 23201.75818635 .00020633 00000-0 79339-3 0 9995 2 50988 97.4313 268.5207 0008981 116.8132 243.4025 15.26399212 83884 Tevel-8 1 50989U 22002F 23201.77842009 .00020817 00000-0 80206-3 0 9999 2 50989 97.4330 268.6036 0009024 116.1079 244.1089 15.26331223 83883 Tevel-5 1 50998U 22002Q 23201.74965507 .00022388 00000-0 83756-3 0 9993 2 50998 97.4307 268.9367 0010036 112.0163 248.2143 15.27283850 83914 Tevel-6 1 50999U 22002R 23201.74816961 .00021884 00000-0 81883-3 0 9992 2 50999 97.4306 268.9293 0010026 111.8328 248.3978 15.27283340 83912 Tevel-1 1 51013U 22002AF 23201.76903824 .00020226 00000-0 77902-3 0 9993 2 51013 97.4306 268.4693 0008915 116.6285 243.5868 15.26349335 83885 Grizu-263a 1 51025U 22002AT 23200.72519087 .00108097 00000-0 17895-2 0 9992 2 51025 97.4433 274.2768 0006411 128.5848 231.5980 15.51781015 84092 NO-116 1 51031U 22002AZ 23200.14804997 .00042673 00000-0 12520-2 0 9999 2 51031 97.4434 270.3117 0009809 117.3638 242.8605 15.34996591 83807 IRIS-A 1 51044U 22002BN 23200.13992525 .00010872 00000-0 50708-3 0 9994 2 51044 97.4329 265.1171 0009532 125.1470 235.0660 15.19994064 83519 Tevel-7 1 51062U 22002CG 23201.77897194 .00020768 00000-0 79965-3 0 9992 2 51062 97.4325 268.5764 0008974 115.7285 244.4881 15.26353107 83882 Tevel-4 1 51063U 22002CH 23201.72072192 .00020542 00000-0 79251-3 0 9999 2 51063 97.4324 268.4990 0009006 115.8235 244.3934 15.26290341 83872 Tevel-2 1 51069U 22002CP 23201.75991287 .00020305 00000-0 78076-3 0 9994 2 51069 97.4310 268.4926 0008940 116.7798 243.4356 15.26404325 83880 DELFI-PQ 1 51074U 22002CU 23200.73973490 .00045065 00000-0 11695-2 0 9996 2 51074 97.4571 273.5293 0010165 139.0337 221.1673 15.38799859 84000 SO-115 1 51080U 22002DA 23200.44044173 .00025324 00000-0 86459-3 0 9995 2 51080 97.4593 271.2810 0011593 143.2946 216.9091 15.30240029 83827 SO-114 1 51081U 22002DB 23201.66676847 .00024775 00000-0 83933-3 0 9993 2 51081 97.4588 272.4908 0011753 138.9525 221.2602 15.30494130 84018 OreSat0 1 52017U 22026K 23201.56199936 .00017418 00000-0 67437-3 0 9994 2 52017 97.5079 204.0776 0019888 331.6146 28.4007 15.26060469 74638 Planetum 1 1 52738U 22057G 23199.79912130 .00016199 00000-0 72962-3 0 9992 2 52738 97.5417 315.7694 0006239 229.8520 130.2169 15.21127671 63467 Foresail-1 1 52766U 22057AL 23201.77272469 .00009558 00000-0 44539-3 0 9999 2 52766 97.5540 318.6419 0011546 207.3191 152.7438 15.20050581 63781 SNUGLITE 2 1 52899U 22065F 23200.65012237 .00001353 00000-0 29514-3 0 9997 2 52899 98.0733 344.5971 0009229 112.7243 247.4933 14.59391270 55597 CTIM 1 52950U 22074G 23201.75405848 .00045177 00000-0 90154-3 0 9991 2 52950 44.9967 171.2138 0012863 80.5631 279.6713 15.46107303 58792 IO-117 1 53106U 22080B 23200.27024149 -.00000003 00000-0 00000+0 0 9996 2 53106 70.1621 308.5714 0008596 179.9245 180.1417 6.42556851 23815 AstroBioCubeSat 1 53107U 22080C 23025.30817895 -.00000003 00000-0 00000-0 0 9995 2 53107 70.1710 9.4734 0013545 210.3158 149.6718 6.42110537 12478 SelfieSat 1 53951U 22057BC 23200.32011919 .00019035 00000-0 80928-3 0 9990 2 53951 97.5466 317.0357 0008351 221.6231 138.4371 15.23048252 63572 FO-118 1 54684U 22167C 23201.77468297 .00012067 00000-0 65253-3 0 9993 2 54684 97.5672 339.1448 0012890 214.3154 145.7246 15.14753452 33762 SSS-2B 1 56184U 23054G 23201.74562354 .00007758 00000-0 32692-3 0 9994 2 56184 97.4065 96.2530 0008557 279.1842 80.8427 15.23576288 15282 CIRBE 1 56188U 23054L 23201.65326260 .00015070 00000-0 61947-3 0 9993 2 56188 97.4017 96.1606 0007258 272.4156 87.6250 15.24244495 15278 INSPIRE-Sat 7 1 56211U 23054AK 23200.70244515 .00015850 00000-0 61806-3 0 9997 2 56211 97.4047 95.4821 0011956 254.2499 105.7421 15.25960538 15149 RoseyCubesat 1 1 56212U 23054AL 23200.68964040 .00016443 00000-0 63509-3 0 9998 2 56212 97.4053 95.5066 0012236 253.6533 106.3361 15.26268298 15148 ARKSAT 1 1 56311U 98067VC 23200.48694466 .00067304 00000-0 77777-3 0 9998 2 56311 51.6361 164.7991 0002884 159.7209 200.3900 15.61248146 13402 AuroraSat 1 56312U 98067VD 23200.06805236 .00100014 00000-0 10720-2 0 9992 2 56312 51.6345 166.4966 0003088 137.9593 222.1638 15.63017070 13375 Ex-Alta 2 1 56313U 98067VE 23200.10249243 .00076533 00000-0 88300-3 0 9996 2 56313 51.6344 166.7256 0002792 155.2529 204.8599 15.61236478 13368 LightCube 1 56314U 98067VF 23201.74060240 .00093096 00000-0 10044-2 0 9998 2 56314 51.6349 158.1633 0005064 147.1167 213.0143 15.62873111 13652 NEUDOSE 1 56315U 98067VG 23200.11449043 .00052613 00000-0 68101-3 0 9999 2 56315 51.6356 167.5562 0004768 164.9639 195.1496 15.58363909 13337 YukonSat 1 56316U 98067VH 23200.07827063 .00066539 00000-0 81056-3 0 9993 2 56316 51.6346 167.3147 0004514 153.1872 206.9355 15.59869517 13356 URESAT-1 1 56992U 23084BU 23200.13360520 .00013739 00000-0 79238-3 0 9990 2 56992 97.5101 316.1299 0019344 108.9762 251.3567 15.12322586 5471 UmKA 1 (RS40S) 1 57172U 23091G 23201.77335500 .00004066 00000-0 30197-3 0 9994 2 57172 97.6604 252.2593 0018573 167.7381 192.4300 15.03454832 3480 CubeBel-2 (EU11S) 1 57175U 23091K 23201.78307968 .00004734 00000-0 35673-3 0 9991 2 57175 97.6610 252.2473 0017027 176.8243 183.3093 15.02847937 3487 /EX